カタリナ彗星

C/2006 A2 ( Catalina )

English version
Home page
Updated on January 20, 2013

---------------------------------------------------------------------

・ プロフィール

発見日 2006年1月21日
発見光度 20.3等
発見者 Catalina Sky Survey

・ 軌道要素

Epoch 2005 May 30.0 TT = JDT 2453520.5
T 2005 May 20.11334 TT                                  MPC
q   5.3159801            (2000.0)            P               Q
z  +0.0003656      Peri.  141.02144     +0.03659853     +0.90648165
 +/-0.0000066      Node   233.22639     +0.73392317     +0.26130968
e   0.9980564      Incl.  148.32106     +0.67824578     -0.33167493
From 83 observations 2006 Jan. 21-Nov. 24, mean residual 0".6.

・ 光度変化

        m1 = 12.0 + 5 logΔ + 5.0 log r

---------------------------------------------------------------------

軌道要素はM.P.E.C. 2013-A29に掲載されたものです。
光度グラフはComet for Windowsで作成したものです。

---------------------------------------------------------------------

Copyright(C) Seiichi Yoshida (comet@aerith.net). All rights reserved.